AirNav   Everest Fuels
 
 933 users online  

2MO3 Independence Regional Health Center Heliport
Independence, Missouri, USA

GOING TO INDEPENDENCE?


FAA INFORMATION EFFECTIVE 18 JUNE 2020

Location

FAA Identifier: 2MO3
Lat/Long: 39-05-38.9100N 094-26-06.4500W
39-05.648500N 094-26.107500W
39.0941417,-94.4351250
(estimated)
Elevation: 952 ft. / 290 m (estimated)
Variation: 05E (1990)
Time zone: UTC -5 (UTC -6 during Standard Time)
Zip code: 64050

Heliport Operations

Heliport use: Private use, MEDICAL USE.
Activation date: 03/1993
Control tower: no
ARTCC: KANSAS CITY CENTER
FSS: COLUMBIA FLIGHT SERVICE STATION
Attendance: CONTINUOUS
Wind indicator: yes
Segmented circle: no

Heliport Communications

WX ASOS at MKC (8 nm W): PHONE 816-329-2843
WX ASOS at LXT (9 nm S): 124.175 (816-347-9807)
WX AWOS-3 at GPH (15 nm N): 120.275 (816-407-3399)
WX ASOS at MCI (18 nm NW): PHONE 816-329-2808

Nearby radio navigation aids

VOR radial/distance  VOR name  Freq  Var
ANXr263/14.3NAPOLEON VORTAC114.0007E
MCIr124/18.1KANSAS CITY VORTAC113.2505E

Heliport Services

Runway Information

Helipad H1

Dimensions: 30 x 30 ft. / 9 x 9 m
Surface: asphalt
Latitude: 39-05.648500N
Longitude: 094-26.107500W
Elevation: 952.0 ft.
Traffic pattern: leftleft

Heliport Ownership and Management from official FAA records

Ownership: Privately-owned
Owner: INDEPENDENCE REGIONAL HEALTH
1509 W. TRUMAN ROAD
INDEPENDENCE, MO 64050
Phone 816-836-8100
Manager: EDDIE JORGENSON
1509 W. TRUMAN ROAD
INDEPENDENCE, MO 64050
Phone 816-836-8100

Additional Remarks

OWNER DESIRES HELIPORT NOT BE CHARTED.
FOR CD CTC KANSAS CITY APCH AT 816-329-2710.

Instrument Procedures

There are no published instrument procedures at 2MO3.

Some nearby airports with instrument procedures:

KMKC - Charles B Wheeler Downtown Airport (8 nm W)
KLXT - Lee's Summit Municipal Airport (9 nm S)
3GV - East Kansas City Airport (11 nm SE)
KGPH - Midwest National Air Center Airport (15 nm N)
KMCI - Kansas City International Airport (18 nm NW)
3EX - Excelsior Springs Memorial Airport (18 nm NE)
 
Loc | Ops | Rwys | IFR | FBO | Links
Com | Nav | Svcs | Stats | Notes
Area around 2MO3 (Independence Regional Health Center Heliport)
 
Road maps at: MapQuest Bing Google
 
Aerial photo
No photo
 
Sectional chart

 
Airport distance calculator
Flying to Independence Regional Health Center Heliport? Find the distance to fly.

From to 2MO3

Sunrise and sunset
Times for 05-Jul-2020
 Local
(UTC-5)
 Zulu
(UTC)
Morning civil twilight05:2710:27
Sunrise05:5910:59
Sunset20:4601:46
Evening civil twilight21:1802:18

Current date and time
Zulu (UTC)  05-Jul-2020 23:25:42
Local (UTC-5)  05-Jul-2020 18:25:42
 
METAR
KMKC 
8nm W 
052254Z 08007KT 10SM FEW050 32/18 A2991 RMK AO2 SLP121 T03170178
KLXT 
8nm SE 
052253Z AUTO 10007KT 10SM CLR 32/19 A2994 RMK AO2 SLP128 T03170194
KGPH 
15nm N 
052255Z AUTO 14004KT 10SM CLR 31/18 A2993 RMK AO2
KMCI 
19nm NW 
052253Z 09008KT 10SM SCT049 SCT110 30/20 A2994 RMK AO2 SLP126 TCU DSNT SE T03000200
TAF
KMKC 
8nm W 
051730Z 0518/0618 09008KT P6SM SCT050 FM060200 12005KT P6SM SCT200
KMCI 
19nm NW 
051730Z 0518/0618 11011KT P6SM SCT050 FM060200 12005KT P6SM SCT200
NOTAMs
Click for the latest NOTAMs
NOTAMs are issued by the DoD/FAA and will open in a separate window not controlled by AirNav.

 

 
 

Would you like to see your business listed on this page?

 If your business provides an interesting product or service to pilots, flight crews, aircraft, or users of the Independence Regional Health Center Heliport, you should consider listing it here.  To start the listing process, click on the button below
 
Add a business
 

Other Pages about Independence Regional Health Center Heliport

Update a link
 
Copyright © AirNav, LLC. All rights reserved. Privacy Policy  Contact